Regional Weather Roundup
Issued by NWS

Home | Current Version | Previous Version | Text Only | Print | Product List | Glossary On
Versions: 1 2 3 4 5 6 7 8 9 10 11 12 13 14 15 16 17 18 19 20 21 22 23 24 25 26 27
000
ASUS45 KBOU 111007
RWRCO

WEATHER ROUNDUP FOR COLORADO
NATIONAL WEATHER SERVICE DENVER/BOULDER CO
300 AM MST SUN DEC 11 2016

NOTE: "FAIR" INDICATES FEW OR NO CLOUDS BELOW 12000 FEET WITH NO
SIGNIFICANT WEATHER AND/OR OBSTRUCTIONS TO VISIBILITY.

COZ001>005-013-030-031-111100-
...NORTHWEST COLORADO...

CITY           SKY/WX    TMP DP  RH WIND       PRES   REMARKS
CRAIG          LGT SNOW  33  30  88 SW8       29.88R VSB 1   WCI  26
HAYDEN         CLOUDY    30  27  86 W7        29.86R VSB 3/4 WCI  23
MEEKER         LGT SNOW  33  32  96 NW5       29.88R VSB 1   WCI  29
MOUNT WERNER   NOT AVBL
STEAMBOAT SPGS CLOUDY    30  30  99 SW6       29.84R WCI  24
WALDEN           N/A     27  25  93 CALM      29.82R
$$

COZ006>008-011-111100-
...WEST CENTRAL VALLEYS...

CITY           SKY/WX    TMP DP  RH WIND       PRES   REMARKS
GRAND JUNCTION CLOUDY    31  27  85 NE3       29.88R
MONTROSE       MOCLDY    37  29  72 N5        29.89S
EAGLE          LGT RAIN  35  32  88 VRB6      29.84S WCI  30
RIFLE          MIX PCPN  30  27  88 SE5       29.85S WCI  25
DELTA          CLOUDY    37  29  74 NW3       29.88S
NUCLA          FAIR      43  30  61 S3        29.96S
$$

COZ017>023-064>068-111100-
...SOUTHWEST COLORADO...

CITY           SKY/WX    TMP DP  RH WIND       PRES   REMARKS
DURANGO        CLOUDY    29  23  78 NE7       30.00S WCI  22
CORTEZ         CLOUDY    34  30  85 E6        29.99S WCI  29
PAGOSA SPRINGS FAIR      28  25  87 CALM      30.02S
TELLURIDE      CLOUDY    39  30  70 SW7G16    30.01F
WOLF CREEK PAS HVY SNOW  21  21 100 SW23G31   30.06F VSB<1/4 WCI   5
$$

COZ009-010-012-014-032>034-037-058>063-111100-
...CENTRAL COLORADO...

CITY           SKY/WX    TMP DP  RH WIND       PRES   REMARKS
ASPEN          CLOUDY    37  32  82 SE8       29.82S
BUENA VISTA    CLOUDY    37  28  70 SE7       29.83F
COPPER MTN     NOT AVBL
BERTHOUD PASS  SNOW      21  10  63 W22G28    29.81F VSB 1/2 WCI   5
COTTONWOOD PAS LGT SNOW  34  32  93 S3        29.87S
GUNNISON       LGT SNOW  28  27  96 CALM      29.91F FOG
KREMMLING      LGT SNOW  36  32  87 N5        29.81S
LEADVILLE      SNOW      29  27  92 NE3       29.83S VSB 1/4
MONARCH PASS   CLOUDY    23  21  93 SW37G46   29.98F WCI   4
SALIDA         CLOUDY    40  32  73 S6        29.92F
SUNLIGHT       CLOUDY    27  25  93 SW22G46   29.88F FOG     WCI  12
WILKERSON PASS CLOUDY    27  25  93 SW15      29.90S FOG     WCI  15
$$

COZ069>075-111100-
...SAN LUIS VALLEY/SANGRE DE CRISTO MOUNTAINS...

CITY           SKY/WX    TMP DP  RH WIND       PRES   REMARKS
ALAMOSA        FAIR      34  24  67 S10       29.91F WCI  26
LA VETA PASS   FAIR      32  23  69 NE20G31   29.94R WCI  20
SAGUACHE       CLOUDY    30  21  69 NW5       29.92F WCI  25
$$

COZ035-036-038>040-111100-
...NORTHERN COLORADO FRONT RANGE...

CITY           SKY/WX    TMP DP  RH WIND       PRES   REMARKS
DENVER INTL AP MOCLDY    34  28  79 E6        29.74S WCI  29
DMNS CITY PARK   N/A     36  29  76 NE5G14    29.77R
AURORA         NOT AVBL
FRONT RANGE AP FAIR      36  30  80 NE8       29.75S
ERIE MUNI ARPT LGT RAIN  36  31  83 S3        29.75R
BOULDER MUN AP LGT RAIN  37  32  81 CALM      29.72F
CENTENNIAL     MOCLDY    37  29  72 CALM      29.77R
BROOMFIELD     MOCLDY    36  32  87 SE3       29.75R
FORT COLLINS   CLOUDY    37  32  81 N12       29.74R
LONGMONT       NOT AVBL
$$

COZ041-046-047-076>085-087-088-111100-
...PIKES PEAK/PALMER DIVIDE AND SOUTHERN FOOTHILLS...

CITY           SKY/WX    TMP DP  RH WIND       PRES   REMARKS
COLO. SPRINGS  MOCLDY    46  23  40 NE12      29.72R
A. F. ACADEMY  FAIR      51  24  34 W17G35    29.70S
SCHRIEVER AFB  NOT AVBL
ELLICOTT       FAIR     N/A N/A N/A NE10      29.72R
FALCON         FAIR      41  23  47 CALM      29.76R
FORT CARSON    NOT AVBL
LIMON          FAIR      39  27  62 N23G29    29.74R
MONUMENT HILL  FAIR      34  25  69 NE9       29.79R WCI  26
TRINIDAD       FAIR      31  11  43 S8        29.73S WCI  23
$$

COZ042>045-048>051-090-091-111100-
...NORTHEAST COLORADO...

CITY           SKY/WX    TMP DP  RH WIND       PRES   REMARKS
GREELEY ARPT   LGT RAIN  33  28  81 NE23      29.77R WCI  21
AKRON          FAIR      34  26  72 N22       29.74R WCI  22
BURLINGTON     FAIR      39  24  55 NW15      29.73R
WRAY           NOT AVBL
STERLING       FLURRIES  36  30  80 N10       29.78R
HOLYOKE        FAIR      37  28  70 N20       29.73R
FORT MORGAN    CLOUDY    35  28  77 N13       29.77S WCI  26
$$

COZ086-089-092>099-111100-
...SOUTHEAST COLORADO...

CITY           SKY/WX    TMP DP  RH WIND       PRES   REMARKS
PUEBLO         FAIR      46  23  40 CALM      29.68R
LA JUNTA       FAIR      31  19  61 N10       29.70R WCI  22
LAMAR          FAIR      25  20  81 SW6       29.69R WCI  18
SPRINGFIELD      N/A     39  19  44 W12       29.67S
$$




USA.gov is the U.S. government's official web portal to all federal, state and local government web resources and services.